Weather History for Okmulgee, OK

Change the Weather History Date:

Friday, November 25, 2011

  Actual Average (KMKO) Record (KMKO)
Temperature  
Mean Temperature 50 °F -  
Max Temperature 59 °F 56 °F 72 °F (1998)
Min Temperature 42 °F 35 °F 24 °F (2010)
Degree Days  
Heating Degree Days 16    
Moisture  
Dew Point 48 °F    
Average Humidity 88    
Maximum Humidity 94    
Minimum Humidity 77    
Precipitation  
Precipitation 0.00 in - - ()
Sea Level Pressure  
Sea Level Pressure 29.99 in    
Wind  
Wind Speed 12 mph (South)    
Max Wind Speed 21 mph    
Max Gust Speed 31 mph    
Visibility 9 miles    
Events      
Averages and records for this station are not official NWS values.
T = Trace of Precipitation, MM = Missing Value Source: NWS Daily Summary

Daily Weather History Graph

Daily Weather History Graph

Search for Another Location

Airport:

Trip Planner

Search our weather history database for the weather conditions in past years. The results will help you decide how hot, cold, wet, or windy it might be!

Date:

Astronomy

Nov. 25, 2011 Rise Set
Actual Time 7:09 AM CST 5:12 PM CST
Civil Twilight 6:41 AM CST 5:39 PM CST
Nautical Twilight 6:10 AM CST 6:11 PM CST
Astronomical Twilight 5:39 AM CST 6:41 PM CST
Moon 7:36 AM CST (11/25) 5:42 PM CST (11/25)
Length of Visible Light 10h 58m
Length of Day
10h 02m
New Moon, 0% of the Moon is Illuminated
Nov 25
New Moon
Dec 2
First Quarter
Dec 10
Full
Dec 17
Last Quarter
Dec 24
New

Hourly Weather History & Observations

Time (CST) Temp. Windchill Dew Point Humidity Pressure Visibility Wind Dir Wind Speed Gust Speed Precip Events Conditions
12:15 AM 44.6 °F 39.2 °F 42.8 °F 93% 30.12 in 7.0 mi South 10.4 mph 19.6 mph N/A   Overcast
12:55 AM 42.8 °F 38.0 °F 41.0 °F 93% 30.11 in 7.0 mi South 8.1 mph - N/A   Mostly Cloudy
1:15 AM 44.6 °F 39.7 °F 42.8 °F 93% 30.11 in 7.0 mi South 9.2 mph - N/A   Overcast
1:35 AM 44.6 °F 39.2 °F 42.8 °F 93% 30.11 in 7.0 mi South 10.4 mph 16.1 mph N/A   Overcast
1:55 AM 44.6 °F 38.1 °F 42.8 °F 93% 30.11 in 10.0 mi South 13.8 mph 18.4 mph N/A   Overcast
2:15 AM 44.6 °F 38.8 °F 42.8 °F 93% 30.11 in 10.0 mi SSW 11.5 mph - N/A   Overcast
2:35 AM 44.6 °F 38.4 °F 42.8 °F 93% 30.11 in 10.0 mi South 12.7 mph 17.3 mph N/A   Overcast
2:55 AM 44.6 °F 38.8 °F 42.8 °F 93% 30.11 in 10.0 mi South 11.5 mph 17.3 mph N/A   Overcast
3:15 AM 44.6 °F 37.8 °F 42.8 °F 93% 30.11 in 10.0 mi South 15.0 mph - N/A   Overcast
3:35 AM 44.6 °F 38.4 °F 42.8 °F 93% 30.10 in 7.0 mi South 12.7 mph 19.6 mph N/A   Overcast
4:35 AM 46.4 °F 40.7 °F 42.8 °F 87% 30.07 in 7.0 mi South 12.7 mph 19.6 mph N/A   Overcast
4:55 AM 46.4 °F 40.4 °F 44.6 °F 93% 30.07 in 10.0 mi South 13.8 mph 21.9 mph N/A   Overcast
5:15 AM 46.4 °F 39.2 °F 44.6 °F 93% 30.07 in 10.0 mi South 18.4 mph - N/A   Overcast
5:35 AM 46.4 °F 39.5 °F 44.6 °F 93% 30.06 in 7.0 mi South 17.3 mph 23.0 mph N/A   Overcast
5:55 AM 46.4 °F 40.4 °F 44.6 °F 93% 30.06 in 7.0 mi South 13.8 mph 25.3 mph N/A   Overcast
6:15 AM 48.2 °F - 44.6 °F 87% 30.06 in 10.0 mi South 13.8 mph 23.0 mph N/A   Overcast
6:35 AM 48.2 °F - 46.4 °F 93% 30.06 in 10.0 mi South 15.0 mph 21.9 mph N/A   Overcast
6:55 AM 48.2 °F - 46.4 °F 93% 30.07 in 10.0 mi South 13.8 mph 21.9 mph N/A   Overcast
7:15 AM 48.2 °F - 46.4 °F 93% 30.06 in 7.0 mi South 16.1 mph 21.9 mph N/A   Overcast
7:55 AM 48.2 °F - 46.4 °F 93% 30.06 in 7.0 mi South 10.4 mph 18.4 mph N/A   Overcast
8:15 AM 50.0 °F - 46.4 °F 87% 30.06 in 7.0 mi South 16.1 mph 23.0 mph N/A   Overcast
8:35 AM 50.0 °F - 46.4 °F 87% 30.06 in 7.0 mi South 18.4 mph 26.5 mph N/A   Overcast
8:55 AM 50.0 °F - 46.4 °F 87% 30.06 in 7.0 mi South 13.8 mph 24.2 mph N/A   Overcast
9:15 AM 50.0 °F - 46.4 °F 87% 30.05 in 7.0 mi South 19.6 mph 24.2 mph N/A   Overcast
9:35 AM 50.0 °F - 48.2 °F 94% 30.05 in 7.0 mi South 18.4 mph 23.0 mph N/A   Overcast
9:55 AM 50.0 °F - 48.2 °F 94% 30.05 in 7.0 mi South 11.5 mph 20.7 mph N/A   Overcast
10:15 AM 51.8 °F - 50.0 °F 94% 30.04 in 10.0 mi South 15.0 mph 24.2 mph N/A   Overcast
10:55 AM 51.8 °F - 48.2 °F 88% 30.04 in 10.0 mi SSW 18.4 mph 26.5 mph N/A   Overcast
11:35 AM 53.6 °F - 46.4 °F 77% 30.02 in 10.0 mi South 20.7 mph 31.1 mph N/A   Overcast
11:55 AM 53.6 °F - 46.4 °F 77% 30.01 in 10.0 mi South 20.7 mph 28.8 mph N/A   Overcast
12:35 PM 53.6 °F - 46.4 °F 77% 29.98 in 10.0 mi South 15.0 mph 20.7 mph N/A   Overcast
12:55 PM 53.6 °F - 48.2 °F 82% 29.97 in 10.0 mi South 18.4 mph 24.2 mph N/A   Overcast
1:15 PM 53.6 °F - 48.2 °F 82% 29.94 in 10.0 mi South 11.5 mph 18.4 mph N/A   Overcast
1:35 PM 55.4 °F - 50.0 °F 82% 29.93 in 10.0 mi South 10.4 mph 18.4 mph N/A   Mostly Cloudy
1:55 PM 55.4 °F - 50.0 °F 82% 29.93 in 10.0 mi South 12.7 mph - N/A   Mostly Cloudy
2:15 PM 55.4 °F - 50.0 °F 82% 29.92 in 10.0 mi South 10.4 mph - N/A   Mostly Cloudy
2:35 PM 57.2 °F - 50.0 °F 77% 29.91 in 10.0 mi SSW 17.3 mph 23.0 mph N/A   Overcast
3:15 PM 57.2 °F - 51.8 °F 82% 29.91 in 10.0 mi SSW 20.7 mph 26.5 mph N/A   Overcast
3:35 PM 55.4 °F - 51.8 °F 88% 29.93 in 10.0 mi SSW 12.7 mph - N/A   Overcast
3:55 PM 55.4 °F - 51.8 °F 88% 29.92 in 5.0 mi South 15.0 mph - N/A   Overcast
4:15 PM 55.4 °F - 51.8 °F 88% 29.91 in 10.0 mi SSW 9.2 mph - N/A   Overcast
4:35 PM 55.4 °F - 51.8 °F 88% 29.91 in 10.0 mi SSW 8.1 mph - N/A   Overcast
5:15 PM 55.4 °F - 51.8 °F 88% 29.91 in 10.0 mi South 5.8 mph - N/A   Overcast
5:35 PM 55.4 °F - 51.8 °F 88% 29.91 in 10.0 mi South 4.6 mph - N/A   Overcast
5:55 PM 55.4 °F - 51.8 °F 88% 29.91 in 10.0 mi SSE 6.9 mph - N/A   Overcast
6:15 PM 55.4 °F - 51.8 °F 88% 29.91 in 10.0 mi SSE 4.6 mph - N/A   Overcast
6:35 PM 53.6 °F - 51.8 °F 94% 29.91 in 10.0 mi SSE 5.8 mph - N/A   Overcast
6:55 PM 55.4 °F - 51.8 °F 88% 29.90 in 10.0 mi SSE 8.1 mph - N/A   Overcast
7:35 PM 55.4 °F - 51.8 °F 88% 29.88 in 10.0 mi SE 11.5 mph - N/A   Overcast
7:55 PM 55.4 °F - 51.8 °F 88% 29.88 in 10.0 mi SSE 9.2 mph - N/A   Overcast
8:15 PM 55.4 °F - 51.8 °F 88% 29.87 in 10.0 mi SE 10.4 mph - N/A   Overcast
8:55 PM 55.4 °F - 51.8 °F 88% 29.87 in 10.0 mi SSE 8.1 mph - N/A   Overcast
9:15 PM 55.4 °F - 51.8 °F 88% 29.86 in 10.0 mi SSE 8.1 mph - N/A   Scattered Clouds
9:35 PM 55.4 °F - 51.8 °F 88% 29.86 in 10.0 mi SSE 8.1 mph - N/A   Scattered Clouds
9:55 PM 55.4 °F - 51.8 °F 88% 29.86 in 10.0 mi SSE 6.9 mph - N/A   Scattered Clouds
10:15 PM 55.4 °F - 51.8 °F 88% 29.86 in 10.0 mi SSE 8.1 mph - N/A   Scattered Clouds
10:35 PM 55.4 °F - 51.8 °F 88% 29.85 in 10.0 mi SSE 5.8 mph - N/A   Clear
10:55 PM 55.4 °F - 51.8 °F 88% 29.85 in 10.0 mi SSE 6.9 mph - N/A   Clear
11:35 PM 59.0 °F - 51.8 °F 77% 29.84 in 10.0 mi South 9.2 mph - N/A   Mostly Cloudy